Location: Newark
(36.4904°N, 5.5399°E)
Time: 13:10:55
(UTC+00:00)

ISS - Visible Passes

Search period start: 25 August 2019 00:00
Search period end: 04 September 2019 00:00
Orbit: 410 x 421 km, 51.6° (Epoch: 26 August)

Date Brightness Start Highest point End Pass type
(mag) Time Alt. Az. Time Alt. Az. Time Alt. Az.
25 Aug -2.3 04:23:20 10° SSW 04:26:22 33° SE 04:29:25 10° ENE visible
26 Aug -1.4 03:35:54 12° SSE 03:37:44 18° SE 03:40:04 10° E visible
27 Aug -3.8 04:22:22 12° SW 04:25:23 71° NW 04:28:43 10° NE visible
28 Aug -3.4 03:35:49 43° S 03:36:37 58° SE 03:39:54 10° ENE visible
29 Aug -1.5 02:49:12 22° E 02:49:12 22° E 02:50:51 10° ENE visible
29 Aug -2.3 04:22:05 12° W 04:24:36 26° NNW 04:27:28 10° NNE visible
30 Aug -3.2 03:35:22 41° NW 03:35:41 43° NW 03:38:53 10° NE visible
31 Aug -1.5 02:48:36 25° NE 02:48:36 25° NE 02:50:09 10° NE visible
31 Aug -1.3 04:22:16 10° NW 04:23:59 13° NNW 04:25:43 10° N visible
01 Sep -1.8 03:34:38 19° NW 03:34:55 19° NNW 03:37:22 10° NNE visible
02 Sep -1.1 02:47:44 17° NNE 02:47:44 17° NNE 02:48:51 10° NNE visible
03 Sep -1.0 03:33:40 10° NNW 03:34:19 10° NNW 03:34:59 10° N visible
